Weather History for Roswell, NM

Change the Weather History Date:

Wednesday, February 6, 2013

  Actual Average Record
Temperature  
Mean Temperature 51 °F 44 °F  
Max Temperature 71 °F 59 °F 84 °F (2009)
Min Temperature 30 °F 29 °F 3 °F (1956)
Degree Days  
Heating Degree Days 14 21  
Month to date heating degree days 102 130  
Since 1 July heating degree days 2015 2296  
Cooling Degree Days 0 0  
Month to date cooling degree days 0 0  
Year to date cooling degree days 0 0  
Moisture  
Dew Point 19 °F    
Average Humidity 30    
Maximum Humidity 43    
Minimum Humidity 16    
Precipitation  
Precipitation 0.00 in 0.01 in 0.91 in (1905)
Month to date precipitation 0.00 0.08  
Year to date precipitation 0.41 0.46  
Sea Level Pressure  
Sea Level Pressure 29.81 in    
Wind  
Wind Speed 6 mph (NW)    
Max Wind Speed 15 mph    
Max Gust Speed 17 mph    
Visibility 10 miles    
Events      
T = Trace of Precipitation, MM = Missing Value Source: NWS Daily Summary

Daily Weather History Graph

Daily Weather History Graph

Search for Another Location

Airport:

Trip Planner

Search our weather history database for the weather conditions in past years. The results will help you decide how hot, cold, wet, or windy it might be!

Date:

Astronomy

Feb. 06, 2013 Rise Set
Actual Time 6:49 AM MST 5:35 PM MST
Civil Twilight 6:24 AM MST 6:00 PM MST
Nautical Twilight 5:54 AM MST 6:30 PM MST
Astronomical Twilight 5:25 AM MST 6:59 PM MST
Moon 3:30 AM MST (2/6) 2:01 PM MST (2/6)
Length of Visible Light 11h 36m
Length of Day
10h 45m
Waning Crescent, 16% of the Moon is Illuminated
Feb 6
Waning Crescent
Feb 10
New
Feb 17
First Quarter
Feb 25
Full
Mar 4
Last Quarter

Hourly Weather History & Observations

Time (MST) Temp. Windchill Dew Point Humidity Pressure Visibility Wind Dir Wind Speed Gust Speed Precip Events Conditions
12:51 AM 37.9 °F 33.5 °F 12.0 °F 35% 29.88 in 10.0 mi WNW 5.8 mph - N/A   Clear
1:51 AM 37.0 °F 32.4 °F 10.9 °F 34% 29.87 in 10.0 mi WNW 5.8 mph - N/A   Clear
2:51 AM 37.9 °F 32.7 °F 10.9 °F 33% 29.85 in 10.0 mi NW 6.9 mph - N/A   Clear
3:51 AM 33.1 °F 28.7 °F 10.0 °F 38% 29.85 in 10.0 mi NNE 4.6 mph - N/A   Clear
4:51 AM 30.9 °F 26.2 °F 10.0 °F 42% 29.86 in 10.0 mi North 4.6 mph - N/A   Clear
5:51 AM 32.0 °F 26.4 °F 9.0 °F 38% 29.87 in 10.0 mi North 5.8 mph - N/A   Clear
6:51 AM 33.1 °F 30.0 °F 10.0 °F 38% 29.88 in 10.0 mi NW 3.5 mph - N/A   Clear
7:51 AM 37.0 °F 34.5 °F 10.9 °F 34% 29.89 in 10.0 mi North 3.5 mph - N/A   Clear
8:51 AM 41.0 °F - 12.0 °F 31% 29.90 in 10.0 mi Calm Calm - N/A   Clear
9:51 AM 46.9 °F - 16.0 °F 29% 29.88 in 10.0 mi Calm Calm - N/A   Clear
10:51 AM 53.1 °F - 18.0 °F 25% 29.85 in - NNE 3.5 mph - N/A   Clear
11:51 AM 59.0 °F - 21.0 °F 23% 29.81 in 10.0 mi North 4.6 mph - N/A   Unknown
12:51 PM 63.0 °F - 21.9 °F 21% 29.76 in 10.0 mi North - - N/A   Clear
1:51 PM 69.1 °F - 21.9 °F 17% 29.71 in 10.0 mi East 4.6 mph - N/A   Clear
2:51 PM 70.0 °F - 24.1 °F 18% 29.69 in 10.0 mi North 4.6 mph - N/A   Clear
3:51 PM 69.1 °F - 26.1 °F 20% 29.70 in 10.0 mi Variable 4.6 mph - N/A   Clear
4:51 PM 66.9 °F - 26.1 °F 21% 29.72 in 10.0 mi North 3.5 mph - N/A   Clear
5:51 PM 64.0 °F - 21.0 °F 19% 29.74 in 10.0 mi West 5.8 mph - N/A   Clear
6:51 PM 59.0 °F - 23.0 °F 25% 29.78 in 10.0 mi WSW 6.9 mph - N/A   Clear
7:51 PM 59.0 °F - 25.0 °F 27% 29.78 in 10.0 mi West 11.5 mph - N/A   Clear
8:51 PM 57.9 °F - 25.0 °F 28% 29.78 in 10.0 mi West 9.2 mph - N/A   Clear
9:51 PM 55.9 °F - 26.1 °F 32% 29.79 in 10.0 mi West 10.4 mph - N/A   Clear
10:51 PM 55.0 °F - 25.0 °F 31% 29.80 in 10.0 mi NW 11.5 mph - N/A   Clear
11:51 PM 52.0 °F - 25.0 °F 35% 29.80 in 10.0 mi WNW 9.2 mph - N/A   Clear